Location: Newark
(45.4422°N, 16.2769°E)
Time: 23:00:30
(UTC+00:00)

Explorer 7 - Pass Details

Date: 24 January 2021
Orbit: 484 x 677 km, 50.3° (Epoch: 08 March)

Event Time Altitude Azimuth Distance (km) Brightness Sun altitude
Exits shadow 02:58:20 11° 82° (E) 1,677 10.0 -35.9°
Drops below altitude 10° 02:58:34 10° 80° (E) 1,757 10.2 -35.9°
Sets 03:01:00 0° 69° (ENE) 2,660 11.3 -35.5°
